Regional Weather Roundup
Issued by NWS

Home | Current Version | Previous Version | Graphics & Text | Print | Product List | Glossary On
Versions: 1 2 3 4 5 6 7 8 9 10 11 12 13 14 15 16 17 18 19 20 21 22 23 24 25 26 27 28 29 30 31 32 33 34 35 36 37 38 39 40 41 42 43 44 45 46 47 48 49 50
000
ASUS45 KTFX 032010
RWRMT
MONTANA REGIONAL WEATHER ROUNDUP
NATIONAL WEATHER SERVICE GREAT FALLS MT
200 PM MDT FRI JUL 03 2015

NOTE: "FAIR" INDICATES FEW OR NO CLOUDS BELOW 12000 FEET WITH NO
SIGNIFICANT WEATHER AND/OR OBSTRUCTIONS TO VISIBILITY.

MTZ001>007-043-032100-
WEST OF THE DIVIDE

CITY           SKY/WX    TMP DP  RH WIND       PRES   REMARKS
KALISPELL      CLEAR     90  45  21 E8        29.90F
MISSOULA       SUNNY     92  39  15 N12       29.93F
BUTTE          MOSUNNY   85  36  17 W9        30.07F
MULLAN PASS    SUNNY     77  37  23 VRB5      30.16F
DEER LODGE       N/A     86  43  22 W6        30.05F
EUREKA           N/A     91  46  21 SE8       29.88F
HAMILTON         N/A     88  45  22 NE8       29.96F
PLAINS           N/A     93  47  20 W8        29.90F
RONAN            N/A     88  53  30 CALM      29.99F
THOMPSON FALLS   N/A     95  43  16 SW3       29.93F HX  91
$$

MTZ008-052>055-032100-
SOUTHWEST MONTANA

CITY           SKY/WX    TMP DP  RH WIND       PRES   REMARKS
BOZEMAN        SUNNY     89  47  23 CALM      29.99F
DILLON         SUNNY     87  37  17 CALM      30.03F
W YELLOWSTONE  PTSUNNY   81  36  19 W9        30.15S
THREE FORKS      N/A     88  47  24 NE3       29.98F
$$

MTZ009-010-012-014-046-048-049-054-032100-
EAST SLOPES AND CENTRAL MONTANA

CITY           SKY/WX    TMP DP  RH WIND       PRES   REMARKS
CUT BANK       PTSUNNY   90  40  17 SW7       29.92F
GREAT FALLS    SUNNY     91  42  18 W10G17    29.92F
MALMSTROM AFB  SUNNY     88  39  17 W9G15     29.91F
HELENA         SUNNY     92  46  20 N3        29.93F
CONRAD           N/A     91  60  35 SW3       29.95F HX  90
$$

MTZ011-013-016-021-045-047-050-051-032100-
NORTH CENTRAL MONTANA

CITY           SKY/WX    TMP DP  RH WIND       PRES   REMARKS
HAVRE          MOSUNNY   93  48  21 VRB7      29.85F
LEWISTOWN      SUNNY     88  45  22 CALM      29.98F
CHINOOK          N/A     91  46  21 SE8       29.86F
FORT BENTON      N/A     91  41  17 E3        29.88F
$$

MTZ017>020-022>027-061-062-032100-
NORTHEAST MONTANA

CITY           SKY/WX    TMP DP  RH WIND       PRES   REMARKS
GLASGOW        SUNNY     85  52  32 SE8       29.91F
JORDAN           N/A     87  51  28 S9        29.92F
SIDNEY         SUNNY     86  59  39 S6        29.94F
WOLF POINT     SUNNY     85  59  41 NE6       29.92F
MALTA            N/A     90  52  27 CALM      29.87F
PLENTYWOOD       N/A     81  61  50 SE3       29.94F
POPLAR           N/A     84  61  45 CALM      29.92F
SCOBEY           N/A     79  56  45 S6        29.94F
$$

MTZ028>42-056>058-032100-
SOUTHCENTRAL AND SOUTHEAST MONTANA

CITY           SKY/WX    TMP DP  RH WIND       PRES   REMARKS
BAKER          SUNNY     83  57  41 S9G18     29.99F
BILLINGS       MOSUNNY   87  52  29 E6        29.97F
LIVINGSTON     SUNNY     87  49  26 SE5       29.99F
MILES CITY     SUNNY     87  54  32 CALM      29.93F
EKALAKA          N/A     82  52  35 SE3       29.99F
FORSYTH          N/A     88  52  29 S5        29.93F
LAUREL           N/A     87  52  30 NE6       29.96F
ROUNDUP          N/A     89  51  27 E3        29.88F
$$

REGIONAL REPORTS...DAKOTAS

CITY           SKY/WX    TMP DP  RH WIND       PRES   REMARKS
WILLISTON      SUNNY     86  56  35 S8        29.94F
MINOT          CLOUDY    81  64  56 VRB3      29.94F HAZE
DICKINSON      MOSUNNY   80  60  50 S8        29.97F
BEACH          FAIR      81  57  44 S7        29.98F
CROSBY         FAIR      77  66  69 S5        29.95F HAZE
BISMARCK       MOSUNNY   81  61  50 CALM      29.97F HAZE
GRAND FORKS    PTSUNNY   81  62  52 N5        29.91F HAZE
FARGO          SUNNY     83  63  50 N7        29.92S HAZE
BUFFALO SD       N/A     84  56  38 S9        29.95F
RAPID CITY     SUNNY     79  60  52 SE9       30.03F
$$

REGIONAL REPORTS...WYOMING/IDAHO/WASHINGTON

CITY           SKY/WX    TMP DP  RH WIND       PRES   REMARKS
GILLETTE       MOSUNNY   83  52  34 VRB7      30.04F
SHERIDAN       SUNNY     87  49  26 SE9       30.00F
BUFFALO WY     MOSUNNY   83  49  30 S9        30.07F
CODY           MOSUNNY   84  48  28 E10       30.02F
YELLOWSTONE LA   N/A     79  26  14 NW8G22    30.24F
IDAHO FALLS    MOSUNNY   91  48  22 S13       30.02F
SALMON         SUNNY     88  46  23 CALM      29.94F
BOISE          SUNNY     98  41  14 NW12G17   29.91F HX  93
SPOKANE        MOSUNNY   95  41  15 SW12      29.90F HX  91
$$

REGIONAL REPORTS...ALBERTA

CITY           SKY/WX    TMP DP  RH WIND       PRES   REMARKS
EDMONTON       MOSUNNY   79  50  36 NW7       29.85R
CALGARY        MOSUNNY   84  50  30 N7G20     29.90F
LETHBRIDGE     PTSUNNY   88  50  27 SW7       29.87F
MEDICINE HAT   CLOUDY    93  54  26 SW15      29.80F HX  91
WATERTON GATE    N/A     88  46  23 SW10G20     N/A
CARDSTON         N/A     84  57  39 N7          N/A
ONEFOUR          N/A     91  45  19 S10         N/A
$$

REGIONAL REPORTS...SASKATCHEWAN

CITY           SKY/WX    TMP DP  RH WIND       PRES   REMARKS
SWIFT CURRENT  SUNNY     84  57  39 S14G20    29.89F HAZE
REGINA         PTSUNNY   82  59  44 S6        29.90F SMOKE
SASKATOON      PTSUNNY   90  52  27 SW15      29.83F
CYPRESS HILLS    N/A     81  43  26 S10G21      N/A
ROCKGLEN         N/A     82  57  42 S9          N/A
ASSINIBOIA       N/A     82  59  44 NW10G18     N/A
$$



USA.gov is the U.S. government's official web portal to all federal, state and local government web resources and services.